When you browse on this site, cookies collect data to enhance your experience and personalize the content and advertising you see.
Visit our Privacy Policy to learn more. By continuing to use the site, you agree to this use of cookies and data.

Hourly Weather Energetik

Today, 3 August, Monday

Time Temperature Precipitation Wind Pressure Humidity
00:00 +11°C° 0 mm 1 mps 746 mmHg 91%
01:00 +11°C° 0 mm 1 mps 747 mmHg 93%
02:00 +11°C° 0 mm 1 mps 747 mmHg 95%
03:00 +11°C° 0 mm 1 mps 747 mmHg 94%
04:00 +11°C° 0 mm 1 mps 747 mmHg 93%
05:00 +12°C° 0 mm 1 mps 747 mmHg 92%
06:00 +13°C° 0 mm 2 mps 748 mmHg 85%
07:00 +15°C° 0 mm 2 mps 748 mmHg 79%
08:00 +17°C° 0 mm 2 mps 748 mmHg 73%
09:00 +18°C° 0 mm 2 mps 748 mmHg 70%
10:00 +19°C° 0 mm 3 mps 748 mmHg 66%
11:00 +20°C° 0 mm 3 mps 748 mmHg 63%
12:00 +21°C° 0.1 mm 3 mps 748 mmHg 60%
13:00 +21°C° 0.1 mm 3 mps 748 mmHg 57%
14:00 +22°C° 0.1 mm 4 mps 747 mmHg 54%
15:00 +22°C° 0 mm 4 mps 747 mmHg 57%
16:00 +21°C° 0 mm 3 mps 747 mmHg 60%
17:00 +21°C° 0 mm 3 mps 747 mmHg 63%
18:00 +19°C° 0 mm 3 mps 748 mmHg 71%
19:00 +17°C° 0 mm 2 mps 748 mmHg 79%
20:00 +16°C° 0 mm 2 mps 748 mmHg 87%
21:00 +15°C° 0 mm 2 mps 748 mmHg 88%
22:00 +15°C° 0 mm 2 mps 748 mmHg 90%
23:00 +14°C° 0 mm 2 mps 748 mmHg 92%

Tomorrow, 4 August, Tuesday

Time Temperature Precipitation Wind Pressure Humidity
00:00 +14°C° 0 mm 2 mps 749 mmHg 93%
01:00 +14°C° 0 mm 2 mps 749 mmHg 94%
02:00 +14°C° 0 mm 2 mps 749 mmHg 95%
03:00 +14°C° 0 mm 2 mps 749 mmHg 94%
04:00 +14°C° 0 mm 2 mps 749 mmHg 92%
05:00 +15°C° 0 mm 2 mps 749 mmHg 91%
06:00 +16°C° 0 mm 2 mps 749 mmHg 86%
07:00 +18°C° 0 mm 2 mps 750 mmHg 80%
08:00 +20°C° 0 mm 2 mps 750 mmHg 75%
09:00 +21°C° 0 mm 3 mps 750 mmHg 70%
10:00 +22°C° 0 mm 3 mps 750 mmHg 65%
11:00 +25°C° 0 mm 3 mps 750 mmHg 61%
12:00 +25°C° 0 mm 3 mps 750 mmHg 59%
13:00 +25°C° 0 mm 3 mps 750 mmHg 57%
14:00 +26°C° 0 mm 3 mps 750 mmHg 55%
15:00 +25°C° 0 mm 3 mps 750 mmHg 58%
16:00 +25°C° 0 mm 2 mps 750 mmHg 62%
17:00 +25°C° 0 mm 2 mps 750 mmHg 65%
18:00 +23°C° 0 mm 2 mps 750 mmHg 71%
19:00 +20°C° 0 mm 2 mps 750 mmHg 78%
20:00 +18°C° 0 mm 2 mps 751 mmHg 84%
21:00 +17°C° 0 mm 2 mps 751 mmHg 86%
22:00 +17°C° 0 mm 2 mps 751 mmHg 88%
23:00 +16°C° 0 mm 2 mps 751 mmHg 90%

Day after tomorrow, 5 August, Wednesday

Time Temperature Precipitation Wind Pressure Humidity
00:00 +16°C° 0 mm 2 mps 751 mmHg 91%
01:00 +15°C° 0 mm 2 mps 751 mmHg 92%
02:00 +15°C° 0 mm 2 mps 751 mmHg 93%
03:00 +15°C° 0 mm 2 mps 751 mmHg 92%
04:00 +15°C° 0 mm 2 mps 751 mmHg 90%
05:00 +14°C° 0 mm 3 mps 751 mmHg 89%
06:00 +17°C° 0 mm 3 mps 751 mmHg 83%
07:00 +19°C° 0 mm 3 mps 752 mmHg 77%
08:00 +21°C° 0 mm 3 mps 752 mmHg 71%
09:00 +22°C° 0 mm 3 mps 752 mmHg 66%
10:00 +23°C° 0 mm 4 mps 752 mmHg 61%
11:00 +26°C° 0 mm 4 mps 752 mmHg 56%
12:00 +26°C° 0 mm 4 mps 752 mmHg 55%
13:00 +27°C° 0 mm 4 mps 752 mmHg 54%
14:00 +27°C° 0 mm 4 mps 752 mmHg 53%
15:00 +27°C° 0 mm 3 mps 752 mmHg 57%
16:00 +26°C° 0 mm 3 mps 752 mmHg 62%
17:00 +26°C° 0 mm 2 mps 752 mmHg 66%
18:00 +24°C° 0 mm 2 mps 752 mmHg 72%
19:00 +23°C° 0 mm 2 mps 752 mmHg 77%
20:00 +20°C° 0 mm 2 mps 752 mmHg 83%
21:00 +19°C° 0 mm 2 mps 752 mmHg 85%
22:00 +20°C° 0 mm 1 mps 752 mmHg 87%
23:00 +19°C° 0 mm 1 mps 752 mmHg 90%

6 August, Thursday

Time Temperature Precipitation Wind Pressure Humidity
00:00 +19°C° 0 mm 1 mps 752 mmHg 91%
01:00 +19°C° 0 mm 1 mps 753 mmHg 92%
02:00 +18°C° 0 mm 1 mps 753 mmHg 93%
03:00 +19°C° 0 mm 1 mps 753 mmHg 93%
04:00 +19°C° 0 mm 1 mps 753 mmHg 92%
05:00 +19°C° 0 mm 1 mps 753 mmHg 92%
06:00 +20°C° 0.5 mm 1 mps 753 mmHg 92%
07:00 +20°C° 0.5 mm 1 mps 753 mmHg 92%
08:00 +20°C° 0.5 mm 1 mps 753 mmHg 92%
09:00 +21°C° 2 mm 1 mps 753 mmHg 92%
10:00 +21°C° 2 mm 1 mps 753 mmHg 93%
11:00 +21°C° 2 mm 1 mps 754 mmHg 93%
12:00 +22°C° 0.8 mm 1 mps 754 mmHg 92%
13:00 +22°C° 0.8 mm 1 mps 754 mmHg 91%
14:00 +22°C° 0.8 mm 1 mps 754 mmHg 90%
15:00 +23°C° 0.6 mm 1 mps 754 mmHg 88%
16:00 +23°C° 0.6 mm 1 mps 754 mmHg 86%
17:00 +23°C° 0.6 mm 1 mps 754 mmHg 85%
18:00 +22°C° 0.1 mm 1 mps 754 mmHg 87%
19:00 +20°C° 0.1 mm 1 mps 754 mmHg 90%
20:00 +19°C° 0.1 mm 1 mps 754 mmHg 92%
21:00 +18°C° 0 mm 1 mps 754 mmHg 93%
22:00 +18°C° 0 mm 1 mps 754 mmHg 93%
23:00 +16°C° 0 mm 1 mps 755 mmHg 94%

7 August, Friday

Time Temperature Precipitation Wind Pressure Humidity
00:00 +16°C° 0 mm 1 mps 755 mmHg 94%
01:00 +15°C° 0 mm 1 mps 755 mmHg 94%
02:00 +15°C° 0 mm 1 mps 755 mmHg 94%
03:00 +15°C° 0 mm 2 mps 755 mmHg 94%
04:00 +14°C° 0 mm 2 mps 755 mmHg 93%
05:00 +14°C° 0 mm 2 mps 756 mmHg 92%
06:00 +16°C° 0 mm 2 mps 756 mmHg 87%
07:00 +17°C° 0 mm 2 mps 756 mmHg 81%
08:00 +19°C° 0 mm 2 mps 756 mmHg 76%
09:00 +20°C° 0 mm 3 mps 756 mmHg 68%
10:00 +22°C° 0 mm 3 mps 756 mmHg 60%
11:00 +23°C° 0 mm 4 mps 756 mmHg 52%
12:00 +25°C° 0 mm 4 mps 756 mmHg 52%
13:00 +25°C° 0 mm 4 mps 756 mmHg 52%
14:00 +25°C° 0 mm 4 mps 756 mmHg 52%
15:00 +25°C° 0 mm 3 mps 756 mmHg 55%
16:00 +24°C° 0 mm 3 mps 756 mmHg 58%
17:00 +24°C° 0 mm 3 mps 755 mmHg 61%
18:00 +21°C° 0 mm 2 mps 755 mmHg 68%
19:00 +19°C° 0 mm 2 mps 755 mmHg 74%
20:00 +17°C° 0 mm 2 mps 755 mmHg 81%
21:00 +16°C° 0 mm 2 mps 756 mmHg 83%
22:00 +16°C° 0 mm 2 mps 756 mmHg 85%
23:00 +15°C° 0 mm 2 mps 756 mmHg 87%

8 August, Saturday

Time Temperature Precipitation Wind Pressure Humidity
00:00 +15°C° 0 mm 2 mps 756 mmHg 87%
01:00 +14°C° 0 mm 1 mps 756 mmHg 88%
02:00 +14°C° 0 mm 1 mps 756 mmHg 89%
03:00 +14°C° 0 mm 1 mps 756 mmHg 89%
04:00 +14°C° 0 mm 2 mps 756 mmHg 89%
05:00 +14°C° 0 mm 2 mps 756 mmHg 89%
06:00 +16°C° 0 mm 2 mps 756 mmHg 83%
07:00 +18°C° 0 mm 2 mps 756 mmHg 77%
08:00 +20°C° 0 mm 2 mps 756 mmHg 71%
09:00 +21°C° 0 mm 2 mps 756 mmHg 64%
10:00 +24°C° 0 mm 3 mps 756 mmHg 57%
11:00 +25°C° 0 mm 3 mps 755 mmHg 50%
12:00 +25°C° 0 mm 3 mps 755 mmHg 50%
13:00 +25°C° 0 mm 4 mps 755 mmHg 51%
14:00 +26°C° 0 mm 4 mps 754 mmHg 51%
15:00 +25°C° 0 mm 3 mps 754 mmHg 55%
16:00 +24°C° 0 mm 3 mps 754 mmHg 60%
17:00 +22°C° 0 mm 3 mps 754 mmHg 64%
18:00 +21°C° 0 mm 3 mps 754 mmHg 70%
19:00 +19°C° 0 mm 2 mps 754 mmHg 76%
20:00 +17°C° 0 mm 2 mps 754 mmHg 83%
21:00 +16°C° 0 mm 2 mps 754 mmHg 85%
22:00 +15°C° 0 mm 2 mps 754 mmHg 88%
23:00 +14°C° 0 mm 2 mps 754 mmHg 90%
Show more